Jordan, MT

3:54 PM MDT on March 27, 2017 (GMT -0600)
Jordan

Weather History for KJDN - August, 2014

Change the Weather History Date:

Thursday, August 28, 2014

  Actual Average Record
Temperature  
Mean Temperature 71 °F 66 °F  
Max Temperature 88 °F 82 °F 101 °F (1971)
Min Temperature 53 °F 49 °F 31 °F (1988)
Degree Days  
Heating Degree Days 0 3  
Month to date heating degree days 41 32  
Since 1 June heating degree days 176 182  
Since 1 July heating degree days 46 57  
Cooling Degree Days 6 3  
Month to date cooling degree days 177 154  
Year to date cooling degree days 450 385  
Since 1 June cooling degree days 425 379  
Growing Degree Days 21 (Base 50)    
Moisture  
Dew Point 52 °F    
Average Humidity 60    
Maximum Humidity 100    
Minimum Humidity 20    
Precipitation  
Precipitation 0.00 in 0.01 in 0.56 in (1999)
Month to date precipitation 6.24 1.10  
Year to date precipitation 11.60 9.83  
Snow  
Snow 0.00 in - - ()
Month to date snowfall 0.0  
Since 1 June snowfall 0.0  
Since 1 July snowfall 0.0  
Snow Depth 0.00 in    
Sea Level Pressure  
Sea Level Pressure 29.86 in    
Wind  
Wind Speed 8 mph (WNW)    
Max Wind Speed 33 mph    
Max Gust Speed 45 mph    
T = Trace of Precipitation, MM = Missing Value Source: NWS Daily Summary

Daily Weather History Graph

Daily Weather History Graph

Search for Another Location

Airport or City:

Trip Planner

Search our weather history database for the weather conditions in past years. The results will help you decide how hot, cold, wet, or windy it might be!

Date:

Astronomy

Aug. 28, 2014 Rise Set
Actual Time 6:21 AM MDT 7:55 PM MDT
Civil Twilight 5:49 AM MDT 8:27 PM MDT
Nautical Twilight 5:10 AM MDT 9:06 PM MDT
Astronomical Twilight 4:27 AM MDT 9:48 PM MDT
Moon 9:31 AM MDT (8/28) 9:04 PM MDT (8/28)
Length of Visible Light 14h 38m
Length of Day
13h 33m
Waxing Crescent, 9% of the Moon is Illuminated
Aug 28
Waxing Crescent
Sep 2
First Quarter
Sep 8
Full
Sep 15
Last Quarter
Sep 24
New

Hourly Weather History & Observations

Time (MDT) Temp. Heat Index Dew Point Humidity Pressure Visibility Wind Dir Wind Speed Gust Speed Precip Events Conditions
12:48 AM 57.9 °F - 55.0 °F 90% 29.91 in - WNW 6.9 mph - N/A   Unknown
1:48 AM 55.9 °F - 53.1 °F 90% 29.90 in - WNW 3.5 mph - N/A   Unknown
2:48 AM 55.0 °F - 53.1 °F 93% 29.90 in - Calm Calm - N/A   Unknown
3:48 AM 54.0 °F - 53.1 °F 97% 29.90 in - West 5.8 mph - N/A   Unknown
4:48 AM 55.0 °F - 53.1 °F 93% 29.90 in - West 5.8 mph - N/A   Unknown
5:48 AM 54.0 °F - 52.0 °F 93% 29.90 in - West 4.6 mph - N/A   Unknown
6:48 AM 55.0 °F - 52.0 °F 89% 29.91 in - West 4.6 mph - N/A   Unknown
7:48 AM 62.1 °F - 55.9 °F 80% 29.90 in - Calm Calm - N/A   Unknown
8:48 AM 69.8 °F - 55.4 °F 60% 29.90 in - West 6.9 mph - N/A   Unknown
9:48 AM 75.9 °F - 54.0 °F 46% 29.89 in - West 9.2 mph - N/A   Unknown
10:48 AM 80.1 °F - 52.0 °F 38% 29.89 in - West 11.5 mph - N/A   Unknown
11:48 AM 82.9 °F 81.8 °F 53.1 °F 36% 29.88 in - West 10.4 mph - N/A   Unknown
12:48 PM 84.9 °F - 51.1 °F 31% 29.87 in - WNW 8.1 mph - N/A   Unknown
1:48 PM 86.0 °F - 48.9 °F 28% 29.85 in - NW 10.4 mph - N/A   Unknown
2:48 PM 86.0 °F - 48.0 °F 27% 29.83 in - Variable 5.8 mph - N/A   Unknown
3:48 PM 87.1 °F - 46.9 °F 25% 29.82 in - WNW 8.1 mph 18.4 mph N/A   Unknown
4:48 PM 88.0 °F - 41.0 °F 19% 29.81 in - West 17.3 mph 20.7 mph N/A   Unknown
5:48 PM 86.0 °F - 42.1 °F 21% 29.80 in - West 12.7 mph - N/A   Unknown
6:48 PM 84.0 °F - 50.0 °F 31% 29.80 in - NNW 5.8 mph - N/A   Unknown
7:48 PM 73.0 °F - 55.9 °F 55% 29.81 in - NNE 6.9 mph - N/A   Unknown
8:48 PM 70.0 °F - 55.9 °F 61% 29.80 in - East 3.5 mph - N/A   Unknown
9:48 PM 64.9 °F - 57.0 °F 75% 29.80 in - South 4.6 mph - N/A   Unknown
10:48 PM 61.0 °F - 57.0 °F 87% 29.79 in - Calm Calm - N/A   Unknown
11:48 PM 69.1 °F - 55.9 °F 63% 29.84 in - NNW 18.4 mph 44.9 mph N/A   Unknown